Location: Asheville, NC
(35.6000°N, 82.5500°W)
Time: 16:12:10
(UTC-05:00)

KKS-1 - Pass Details

Date: 03 January 2018
Orbit: 637 x 651 km, 98.3° (Epoch: 16 January)

Event Time Altitude Azimuth Distance (km) Brightness Sun altitude
Rises 05:31:44 0° 180° (S) 2,934 ? -25.4°
Reaches altitude 10° 05:34:00 10° 186° (S) 2,027 ? -24.9°
Enters shadow 05:35:24 19° 194° (SSW) 1,502 ? -24.7°
